This is the latest recevied weather packets stored in our database for station/object K4AGR-13. If no packets are shown the sender has not sent any weather packets the latest 10 day(s).
| Time | Temp. | Humidity | Pressure | Rain* | Wind** | Luminosity | Snow |
|---|---|---|---|---|---|---|---|
| 1777648202 | 18.33° C | 71% | 1013.5 hPa | 0 mm | - | 223 W/m² | - |
| 1777647897 | 17.78° C | 68% | 1013.3 hPa | 0 mm | - | 156 W/m² | - |
| 1777646684 | 17.78° C | 67% | 1013.4 hPa | 0 mm | - | 150 W/m² | - |
| 1777646380 | 17.78° C | 66% | 1013.4 hPa | 0 mm | - | 185 W/m² | - |
| 1777646077 | 17.78° C | 66% | 1013.5 hPa | 0 mm | - | 94 W/m² | - |
| 1777645773 | 17.78° C | 68% | 1013.5 hPa | 0 mm | - | 116 W/m² | - |
| 1777645471 | 17.78° C | 67% | 1013.4 hPa | 0 mm | - | 128 W/m² | - |
| 1777645166 | 17.78° C | 66% | 1013.6 hPa | 0 mm | - | 93 W/m² | - |
| 1777644863 | 17.78° C | 69% | 1013.6 hPa | 0 mm | - | 105 W/m² | - |
| 1777644561 | 17.78° C | 69% | 1013.5 hPa | 0 mm | - | 98 W/m² | - |
| 1777643953 | 17.78° C | 69% | 1013.5 hPa | 0 mm | - | 136 W/m² | - |
| 1777643650 | 17.78° C | 70% | 1013.3 hPa | 0 mm | - | 130 W/m² | - |
| 1777643044 | 17.22° C | 71% | 1013.4 hPa | 0 mm | - | 133 W/m² | - |
| 1777642740 | 17.22° C | 70% | 1013.3 hPa | 0 mm | - | 134 W/m² | - |
| 1777642438 | 17.22° C | 71% | 1013.5 hPa | 0 mm | - | 175 W/m² | - |
| 1777642134 | 17.22° C | 71% | 1013.6 hPa | 0 mm | - | 118 W/m² | - |
| 1777641830 | 17.22° C | 76% | 1013.6 hPa | 0 mm | - | 68 W/m² | - |
| 1777641526 | 17.22° C | 78% | 1013.2 hPa | 0 mm | - | 139 W/m² | - |
| 1777640918 | 16.67° C | 79% | 1013.3 hPa | 0 mm | - | 136 W/m² | - |
| 1777640615 | 16.67° C | 79% | 1013.3 hPa | 0 mm | - | 121 W/m² | - |
| 1777640310 | 16.67° C | 81% | 1013.2 hPa | 0 mm | - | 88 W/m² | - |
| 1777639102 | 16.67° C | 81% | 1013.4 hPa | 0 mm | - | 38 W/m² | - |
| 1777638800 | 16.67° C | 82% | 1013.5 hPa | 0 mm | - | 47 W/m² | - |
| 1777638500 | 16.67° C | 81% | 1013.4 hPa | 0 mm | - | 49 W/m² | - |
| 1777638198 | 16.67° C | 81% | 1012.8 hPa | 0 mm | - | 60 W/m² | - |
* Rain latest hour (hover to see other rain measurements)
** Current wind speed in m/s (hover to see current wind gust speed)